DW7126 Lourinha PT current weather conditions

sailwx.info

Wind from 052 at 0 knots gusting 5

Air temperature 20.6° C
Dewpoint 16.0° C

Last reported at 2014-Oct-22 21:55 UTC.
Time now 2014-Oct-23 10:15 UTC

Location: N 39°14' W 009°18'.
View on Google Maps.

See reports from other nearby stations

  
Tides and Currents Weather Stations Pressure Air Temp Water Temp Dewpoint Dewpoint Depression Visibility Wind Speed Wind Dir Waves Ship Positions
date/time (UTC)wind fromknots sea level pressurealtimeterstation pressurevisibilityair tempwater tempwave heightnotes
2014-Oct-22 21:55 052 0 gusting 5 20.6
2014-Oct-22 21:50 060 2 gusting 4 20.6
2014-Oct-22 21:45 061 1 gusting 6 20.6
2014-Oct-22 21:40 063 2 gusting 6 20.0
2014-Oct-22 21:35 067 0 gusting 1 20.0
2014-Oct-22 21:30 067 20.0
2014-Oct-22 21:25 067 20.0
2014-Oct-22 21:20 067 19.4
2014-Oct-22 21:15 067 19.4
2014-Oct-22 21:10 065 19.4
2014-Oct-22 21:05 065 19.4
2014-Oct-22 21:00 065 19.4
2014-Oct-22 20:55 065 19.4
2014-Oct-22 20:50 066 19.4
2014-Oct-22 20:45 066 0 gusting 3 19.4
2014-Oct-22 20:40 066 19.4
2014-Oct-22 20:35 067 19.4
2014-Oct-22 20:30 067 19.4
2014-Oct-22 20:25 067 0 gusting 2 19.4
2014-Oct-22 20:20 067 0 gusting 3 19.4
2014-Oct-22 20:15 063 0 gusting 3 19.4
2014-Oct-22 20:10 049 20.0
2014-Oct-22 20:05 049 20.0
2014-Oct-22 20:00 049 20.0
2014-Oct-22 19:55 049 20.0
2014-Oct-22 19:50 049 20.0
2014-Oct-22 19:45 049 20.0
2014-Oct-22 19:40 049 20.0
2014-Oct-22 19:35 049 20.0
2014-Oct-22 19:30 049 20.0
2014-Oct-22 19:25 049 20.0
2014-Oct-22 19:20 049 20.6
2014-Oct-22 19:15 049 20.6
2014-Oct-22 19:10 049 20.6
2014-Oct-22 19:05 049 20.6
2014-Oct-22 19:00 049 20.6
2014-Oct-22 18:55 049 21.1
2014-Oct-22 18:50 049 21.1
2014-Oct-22 18:45 049 21.1
2014-Oct-22 18:40 049 21.1
2014-Oct-22 18:35 049 21.1
2014-Oct-22 18:30 049 21.1
2014-Oct-22 18:25 049 21.1
2014-Oct-22 18:20 049 0 gusting 1 21.1
2014-Oct-22 18:15 046 21.7
2014-Oct-22 18:10 046 21.7
2014-Oct-22 18:05 043 21.7
2014-Oct-22 18:00 041 21.7
2014-Oct-22 17:55 041 22.2
2014-Oct-22 17:50 041 0 gusting 1 22.2
2014-Oct-22 17:45 038 22.8
2014-Oct-22 17:40 038 22.8
2014-Oct-22 17:35 038 23.3
2014-Oct-22 17:30 038 23.3
2014-Oct-22 17:25 038 23.3
2014-Oct-22 17:20 038 23.3
2014-Oct-22 17:15 028 23.3
2014-Oct-22 17:10 028 23.3
2014-Oct-22 17:05 028 23.9
2014-Oct-22 17:00 028 23.9
2014-Oct-22 16:55 028 23.9
2014-Oct-22 16:50 028 23.9
2014-Oct-22 16:45 355 24.4
2014-Oct-22 16:40 355 24.4
2014-Oct-22 16:35 355 24.4
2014-Oct-22 16:30 339 0 gusting 2 24.4
2014-Oct-22 16:25 325 24.4
2014-Oct-22 16:20 325 1 gusting 5 25.0
2014-Oct-22 16:15 309 2 gusting 4 24.4
2014-Oct-22 16:10 292 1 gusting 3 25.0
2014-Oct-22 16:05 286 1 gusting 3 25.6
2014-Oct-22 16:00 291 0 gusting 2 25.6
2014-Oct-22 15:55 291 26.1
2014-Oct-22 15:50 291 26.1
2014-Oct-22 15:45 291 26.1
2014-Oct-22 15:40 293 26.1
2014-Oct-22 15:35 301 0 gusting 3 26.1
2014-Oct-22 15:30 338 26.7
2014-Oct-22 15:25 326 1 gusting 4 28.3
2014-Oct-22 15:20 030 29.4
2014-Oct-22 15:15 032 0 gusting 4 29.4
2014-Oct-22 15:10 033 1 gusting 4 29.4
2014-Oct-22 15:05 033 0 gusting 4 29.4
2014-Oct-22 15:00 024 1 gusting 6 29.4
2014-Oct-22 14:55 026 4 gusting 6 29.4
2014-Oct-22 14:50 038 1 gusting 6 29.4
2014-Oct-22 14:45 035 4 gusting 6 29.4
2014-Oct-22 14:40 024 4 gusting 6 28.9
2014-Oct-22 14:35 005 4 gusting 6 28.9
2014-Oct-22 14:30 015 3 gusting 6 28.3
2014-Oct-22 14:25 005 2 gusting 6 28.3
2014-Oct-22 14:20 360 4 gusting 7 28.3
2014-Oct-22 14:15 360 4 gusting 7 27.8
2014-Oct-22 14:10 360 2 gusting 6 27.8
2014-Oct-22 14:05 005 3 gusting 6 27.8
2014-Oct-22 14:00 336 0 gusting 4 27.2
2014-Oct-22 13:55 331 2 gusting 4 27.8
2014-Oct-22 13:50 325 1 gusting 4 27.8
2014-Oct-22 13:45 326 0 gusting 2 28.3
2014-Oct-22 13:40 328 28.3
2014-Oct-22 13:35 326 28.3
2014-Oct-22 13:30 340 28.3
2014-Oct-22 13:25 341 1 gusting 5 28.3
2014-Oct-22 13:20 338 2 gusting 5 28.9
2014-Oct-22 13:15 351 2 gusting 5 28.9
2014-Oct-22 13:10 017 0 gusting 4 29.4
2014-Oct-22 13:05 020 1 gusting 4 30.0
2014-Oct-22 13:00 056 29.4
2014-Oct-22 12:55 057 3 gusting 7 29.4
2014-Oct-22 12:50 063 5 gusting 7 29.4
2014-Oct-22 12:45 058 4 gusting 6 28.9
2014-Oct-22 12:40 056 2 gusting 6 28.9
2014-Oct-22 12:35 360 4 gusting 6 28.9
2014-Oct-22 12:30 056 2 gusting 6 28.9
2014-Oct-22 12:25 065 0 gusting 4 28.9
2014-Oct-22 12:20 069 0 gusting 4 28.9
2014-Oct-22 12:15 057 2 gusting 5 28.9
2014-Oct-22 12:10 066 3 gusting 5 28.3
2014-Oct-22 12:05 061 0 gusting 4 28.3
2014-Oct-22 12:00 063 0 gusting 4 28.3
2014-Oct-22 11:55 056 0 gusting 3 28.3
2014-Oct-22 11:50 055 0 gusting 4 28.3
2014-Oct-22 11:45 050 28.3
2014-Oct-22 11:40 060 1 gusting 5 27.8
2014-Oct-22 11:35 072 2 gusting 5 27.2
2014-Oct-22 11:30 091 2 gusting 6 27.2
2014-Oct-22 11:25 065 4 gusting 6 27.2
2014-Oct-22 11:20 064 4 gusting 7 27.2
2014-Oct-22 11:15 079 5 gusting 7 27.2
2014-Oct-22 11:10 063 5 gusting 6 27.2
2014-Oct-22 11:05 070 2 gusting 6 27.2
2014-Oct-22 11:00 065 3 gusting 4 26.7
2014-Oct-22 10:55 059 1 gusting 6 26.7
2014-Oct-22 10:50 081 2 gusting 6 26.7
2014-Oct-22 10:45 060 4 gusting 7 26.7
2014-Oct-22 10:40 067 4 gusting 7 26.1
2014-Oct-22 10:35 069 4 gusting 6 25.6
2014-Oct-22 10:30 093 0 gusting 4 25.6
2014-Oct-22 10:25 115 25.0
2014-Oct-22 10:20 129 24.4
2014-Oct-22 10:15 129 24.4
2014-Oct-22 10:10 137 23.9
2014-Oct-22 10:05 145 23.9
2014-Oct-22 10:00 154 23.9
2014-Oct-22 09:55 160 0 gusting 2 23.3
2014-Oct-22 09:50 180 23.3
2014-Oct-22 09:45 182 22.8
2014-Oct-22 09:40 182 22.2
2014-Oct-22 09:35 182 21.7
2014-Oct-22 09:30 182 21.1
2014-Oct-22 09:25 183 21.1
2014-Oct-22 09:20 184 21.1
2014-Oct-22 09:15 184 21.1
2014-Oct-22 09:10 184 21.1
2014-Oct-22 09:05 183 21.1
2014-Oct-22 09:00 183 21.1
2014-Oct-22 08:55 188 20.6
2014-Oct-22 08:50 190 20.6
2014-Oct-22 08:45 190 21.1
2014-Oct-22 08:40 190 21.1
2014-Oct-22 08:35 190 20.6
2014-Oct-22 08:30 190 20.0
2014-Oct-22 08:25 190 19.4
2014-Oct-22 08:20 190 18.9
2014-Oct-22 08:15 190 18.9
2014-Oct-22 08:10 190 18.3
2014-Oct-22 08:05 185 17.8
2014-Oct-22 08:00 173 17.8
2014-Oct-22 07:55 173 17.2
2014-Oct-22 07:50 173 17.2
2014-Oct-22 07:45 173 17.2
2014-Oct-22 07:40 173 17.2
2014-Oct-22 07:35 174 16.7
2014-Oct-22 07:30 174 16.7
2014-Oct-22 07:25 180 0 gusting 2 16.7
2014-Oct-22 07:20 180 17.8
2014-Oct-22 07:15 180 17.2
2014-Oct-22 07:10 180 16.1
2014-Oct-22 07:05 180 16.1
2014-Oct-22 07:00 180 16.7
2014-Oct-22 06:55 180 16.7
2014-Oct-22 06:50 180 16.7
2014-Oct-22 06:45 183 16.7
2014-Oct-22 06:40 183 16.7
2014-Oct-22 06:35 183 16.7
2014-Oct-22 06:30 183 16.7
2014-Oct-22 06:25 183 16.7
2014-Oct-22 06:20 183 16.7
2014-Oct-22 06:15 183 16.7
2014-Oct-21 22:10 060 20.6
2014-Oct-21 22:05 060 20.6
2014-Oct-21 22:00 060 21.1
2014-Oct-21 21:55 060 21.1
2014-Oct-21 21:50 060 21.1
2014-Oct-21 21:45 060 21.1
2014-Oct-21 21:40 060 20.6
2014-Oct-21 21:35 060 20.6
2014-Oct-21 21:30 059 20.0
2014-Oct-21 21:25 059 20.0
2014-Oct-21 21:20 059 20.0
2014-Oct-21 21:15 059 20.0
2014-Oct-21 21:10 059 20.0
2014-Oct-21 21:05 059 20.0
2014-Oct-21 21:00 059 20.0
2014-Oct-21 20:55 059 20.6
2014-Oct-21 20:50 059 20.6
2014-Oct-21 20:45 059 20.6
2014-Oct-21 20:40 059 20.6
2014-Oct-21 20:35 059 20.6
2014-Oct-21 20:30 059 20.6
2014-Oct-21 20:25 059 20.6
2014-Oct-21 20:20 059 20.6
2014-Oct-21 20:15 059 20.6
2014-Oct-21 20:10 059 20.6
2014-Oct-21 20:05 059 20.6
2014-Oct-21 20:00 059 20.6
2014-Oct-21 19:55 059 20.6
2014-Oct-21 19:50 059 20.0
2014-Oct-21 19:45 059 20.6
2014-Oct-21 19:40 059 21.1
2014-Oct-21 19:35 059 21.1
2014-Oct-21 19:30 059 21.1
2014-Oct-21 19:25 059 21.7
2014-Oct-21 19:20 059 1 gusting 3 21.7
2014-Oct-21 19:15 037 21.7
2014-Oct-21 19:10 037 21.7
2014-Oct-21 19:05 037 21.7
2014-Oct-21 19:00 037 21.7
2014-Oct-21 18:55 037 21.7
2014-Oct-21 18:50 037 22.2
2014-Oct-21 18:45 042 22.2
2014-Oct-21 18:40 005 1 gusting 6 22.8
2014-Oct-21 18:35 025 0 gusting 2 23.3
2014-Oct-21 18:30 030 23.3
2014-Oct-21 18:25 034 23.3
2014-Oct-21 18:20 034 23.9
2014-Oct-21 18:15 034 24.4
2014-Oct-21 18:10 034 25.0
2014-Oct-21 18:05 034 25.0
2014-Oct-21 18:00 034 25.6
2014-Oct-21 17:55 034 25.6
2014-Oct-21 17:50 034 25.6
2014-Oct-21 17:45 034 25.6
2014-Oct-21 17:40 034 26.1
2014-Oct-21 17:35 034 26.1
2014-Oct-21 17:30 033 26.7
2014-Oct-21 17:25 033 27.2
2014-Oct-21 17:20 033 27.2
2014-Oct-21 17:15 033 27.8
2014-Oct-21 17:10 034 27.8
2014-Oct-21 17:05 034 0 gusting 2 27.8
2014-Oct-21 17:00 035 28.3
2014-Oct-21 16:55 035 28.3
2014-Oct-21 16:50 042 2 gusting 4 28.3
2014-Oct-21 16:45 030 1 gusting 4 28.3
2014-Oct-21 16:40 056 0 gusting 2 28.3
2014-Oct-21 16:35 060 0 gusting 3 28.3
2014-Oct-21 16:30 060 1 gusting 3 28.9
2014-Oct-21 16:25 059 1 gusting 3 28.9
2014-Oct-21 16:20 063 0 gusting 4 29.4
2014-Oct-21 16:15 065 2 gusting 6 28.9
2014-Oct-21 16:10 076 2 gusting 6 28.9
2014-Oct-21 16:05 080 3 gusting 6 29.4
2014-Oct-21 16:00 085 3 gusting 4 29.4
2014-Oct-21 15:55 086 1 gusting 5 29.4
2014-Oct-21 15:50 082 1 gusting 3 30.0
2014-Oct-21 15:45 093 0 gusting 2 30.0
2014-Oct-21 15:40 093 0 gusting 2 30.0
2014-Oct-21 15:35 093 0 gusting 4 30.0
2014-Oct-21 15:30 098 1 gusting 4 30.0
2014-Oct-21 15:25 058 2 gusting 4 30.6
2014-Oct-21 15:20 054 0 gusting 3 30.6
2014-Oct-21 15:10 005 30.0
2014-Oct-21 15:05 005 30.0
2014-Oct-21 15:00 005 29.4
2014-Oct-21 14:40 055 1 gusting 6 30.0
2014-Oct-21 14:35 059 2 gusting 6 30.0
2014-Oct-21 14:30 059 2 gusting 5 30.0
2014-Oct-21 14:25 068 2 gusting 6 30.0
2014-Oct-21 14:20 055 5 gusting 6 30.0
2014-Oct-21 14:15 055 4 gusting 7 30.0
2014-Oct-21 14:10 065 5 gusting 7 30.0
2014-Oct-21 14:05 053 5 gusting 7 30.0
2014-Oct-21 14:00 040 5 gusting 7 29.4
2014-Oct-21 13:40 094 5 gusting 8 29.4
2014-Oct-21 13:35 062 5 gusting 8 29.4
2014-Oct-21 13:30 063 6 gusting 8 29.4
2014-Oct-21 13:25 067 6 gusting 8 29.4
2014-Oct-21 13:20 062 5 gusting 7 29.4
2014-Oct-21 13:15 056 5 gusting 8 29.4
2014-Oct-21 13:10 071 3 gusting 6 29.4
2014-Oct-21 13:05 069 5 gusting 7 29.4
2014-Oct-21 13:00 053 5 gusting 8 29.4
2014-Oct-21 12:55 050 4 gusting 9 28.9
2014-Oct-21 12:50 083 6 gusting 9 28.9
2014-Oct-21 12:45 055 6 gusting 11 28.9
2014-Oct-21 12:40 059 6 gusting 11 28.9
2014-Oct-21 12:35 051 4 gusting 8 28.9
2014-Oct-21 12:30 086 6 gusting 8 28.9
2014-Oct-21 12:25 055 4 gusting 9 28.3
2014-Oct-21 12:20 090 5 gusting 9 27.8
2014-Oct-21 12:15 109 6 gusting 9 27.8
2014-Oct-21 12:10 360 5 gusting 8 27.8
2014-Oct-21 12:05 075 4 gusting 7 27.8
2014-Oct-21 12:00 080 5 gusting 9 27.8
2014-Oct-21 11:55 046 6 gusting 10 27.8
2014-Oct-21 11:50 073 3 gusting 7 27.8
2014-Oct-21 11:45 073 4 gusting 9 27.8
2014-Oct-21 11:40 069 5 gusting 10 27.2
2014-Oct-21 11:35 083 6 gusting 10 27.2
2014-Oct-21 11:30 080 4 gusting 8 27.2
2014-Oct-21 11:25 061 4 gusting 8 27.2
2014-Oct-21 11:20 067 6 gusting 8 27.2
2014-Oct-21 11:15 090 3 gusting 6 27.2
2014-Oct-21 11:10 082 0 gusting 2 27.8
2014-Oct-21 11:05 070 0 gusting 2 27.8
2014-Oct-21 11:00 071 27.2
2014-Oct-21 10:55 071 0 gusting 3 26.7
2014-Oct-21 10:50 072 26.7
2014-Oct-21 10:45 072 26.1
2014-Oct-21 10:40 072 0 gusting 2 25.6
2014-Oct-21 10:35 069 25.6
2014-Oct-21 10:30 066 0 gusting 3 25.6
2014-Oct-21 10:25 053 1 gusting 3 25.0
2014-Oct-21 10:20 063 1 gusting 3 25.0
2014-Oct-21 10:15 065 0 gusting 3 25.0
2014-Oct-21 10:10 063 1 gusting 3 25.0
2014-Oct-21 10:05 062 0 gusting 3 24.4
2014-Oct-21 10:00 062 0 gusting 3 24.4